Tracking 20093 objects as of 14-Dec-2019
HD Live streaming from Space Station
objects crossing your sky now

FENGYUN 1C DEB

Track FENGYUN 1C DEB now!
10-day predictions


NORAD ID: 31320
Int'l Code: 1999-025BPY
Perigee: 800.6 km
Apogee: 988.6 km
Inclination: 98.3 °
Period: 102.7 minutes
Semi major axis: 7265 km
RCS: 0.0097 m2 (small)
Launch date: May 10, 1999
Source: People's Republic of China (PRC)
Launch site: Taiyaun Space Center, China (TSC)

Note: This is SATELLITE DEBRIS
aabbcc
Your satellite tracking list
Your tracking list is empty




NASA's NSSDC Master Catalog

Two Line Element Set (TLE):
1 31320U 99025BPY 19342.13923982 +.00000427 +00000-0 +28547-3 0  9992
2 31320 098.3294 295.8207 0129417 251.4296 107.2778 14.01835390294597
Source of the keplerian elements: AFSPC